LFCRLFLW

Guest
Details From LFCR - Rodez Marcillac
To LFLW - Aurillac
Flight Number -
Tags generated
Created
Modified
Stats Distance 29 nm / 55 km
Max Altitude 1,900 ft / 579 m
Waypoints 3
Social Downloads 1
Likes 0
Share VATSIM

Download

Looking for another format? Having issues loading an existing format? Contact us
Advertisement - Login to hide

Notes

Basic altitude profile: - Ascent Rate: 2500ft/min - Ascent Speed: 250kts - Cruise Altitude: 35000ft - Cruise Speed: 420kts - Descent Rate: 1500ft/min - Descent Speed: 250kts Options: - Use NATs: yes - Use PACOTS: yes - Use low airways: yes - Use high airways: yes

Route

LFCR GAI53 LFLW

ID Type Via Altitude Latitude Longitude Leg Dist Tot Dist Heading (true) Name
O LFCR APT - 0 ft / 0 m 44.40789˚ 2.48265˚ - 0 nm - Rodez Marcillac
GAI53 FIX - 1,900 ft / 579 m 44.74361˚ 2.39333˚ 20 nm 20 nm 349° / 349° -
O LFLW APT - 0 ft / 0 m 44.89142˚ 2.42219˚ 8 nm 29 nm 8° / 8° Aurillac

Altitude Profile

Advertisement - Login to hide

LFCR

Details ICAO LFCR (RDZ)
Name Rodez Marcillac
Region France
Timezone Europe/Paris (UTC+2.0)
Stats Elevation 1,910 ft / 582 m (AMSL)
Location 44.407888° 2.482646°
Runways 1
Magnetic Variation 0.897° E

METAR

LFCR 221430Z AUTO 29009KT 250V350 9999 BKN038 20/13 Q1014 TEMPO VRB15G25KT 4000 SHRA SCT050CB

Decode

TAF

TAF LFCR 221100Z 2212/2312 31005KT 9999 SCT035TCU TEMPO 2212/2223 4000 SHRA SCT050CB PROB40 TEMPO 2214/2220 VRB15G25KT TSRA BECMG 2223/2301 CAVOK PROB30 TEMPO 2302/2307 3000 BR BKN002

Decode

Departure Runways

ID Width Length Bearing (true) Bearing (mag) Surface Threshold Offset Overrun Length
13 148 ft / 45 m 6,709 ft / 2,045 m 129.07° 128.17° Asphalt 0 ft / 0 m 656 ft / 200 m
31 148 ft / 45 m 6,709 ft / 2,045 m 309.08° 308.18° Asphalt 164 ft / 50 m 0 ft / 0 m

LFLW

Details ICAO LFLW (AUR)
Name Aurillac
Region France
Timezone Europe/Paris (UTC+2.0)
Stats Elevation 2,096 ft / 639 m (AMSL)
Location 44.891416° 2.422195°
Runways 1
Magnetic Variation 0.864° E

METAR

LFLW 221400Z AUTO 25008KT 220V290 9999 SCT030/// OVC082/// ///CB 19/12 Q1015 TEMPO 3000 SHRA

Decode

TAF

Not found

Destination Runways

ID Width Length Bearing (true) Bearing (mag) Surface Threshold Offset Overrun Length
15 98 ft / 30 m 5,430 ft / 1,655 m 150.01° 149.15° Asphalt 0 ft / 0 m 0 ft / 0 m
33 98 ft / 30 m 5,430 ft / 1,655 m 330.01° 329.15° Asphalt 0 ft / 0 m 0 ft / 0 m

Approach Navaids

Runway Type Ident Frequency Range Bearing (true) Bearing (mag) Slope Elevation
15 Localiser AR 110.30 MHz 18 nm / 33 km 150.87° 150.01° - 2,057 ft / 627 m (AMSL)
15 Glidescope AR 110.30 MHz 10 nm / 19 km 150.01° 149.14° 3.00° 2,106 ft / 642 m (AMSL)